TimeCDT,TemperatureF,Dew PointF,Humidity,Sea Level PressureIn,VisibilityMPH,Wind Direction,Wind SpeedMPH,Gust SpeedMPH,PrecipitationIn,Events,Conditions,WindDirDegrees,DateUTC
12:53 AM,63.0,44.1,50,30.15,10.0,East,9.2,-,N/A,,Overcast,100,2012-10-11 05:53:00
1:27 AM,63.0,44.1,50,30.15,10.0,East,6.9,-,N/A,,Overcast,80,2012-10-11 06:27:00
1:53 AM,63.0,43.0,48,30.14,10.0,East,8.1,-,N/A,,Overcast,90,2012-10-11 06:53:00
2:01 AM,63.0,43.0,48,30.15,10.0,East,6.9,-,N/A,,Overcast,90,2012-10-11 07:01:00
2:28 AM,62.1,44.1,52,30.14,10.0,East,6.9,-,N/A,,Overcast,90,2012-10-11 07:28:00
2:53 AM,62.1,44.1,52,30.13,10.0,ENE,6.9,-,N/A,,Overcast,70,2012-10-11 07:53:00
3:53 AM,61.0,44.1,54,30.14,10.0,ENE,5.8,-,N/A,,Overcast,70,2012-10-11 08:53:00
4:53 AM,61.0,44.1,54,30.15,10.0,ENE,4.6,-,N/A,,Overcast,70,2012-10-11 09:53:00
5:53 AM,60.1,44.1,55,30.16,10.0,ENE,4.6,-,N/A,,Overcast,70,2012-10-11 10:53:00
6:53 AM,60.1,44.1,55,30.17,10.0,East,4.6,-,N/A,,Overcast,80,2012-10-11 11:53:00
7:53 AM,61.0,44.1,54,30.17,10.0,East,4.6,-,N/A,,Overcast,80,2012-10-11 12:53:00
8:53 AM,62.1,45.0,53,30.18,10.0,East,4.6,-,N/A,,Overcast,100,2012-10-11 13:53:00
9:53 AM,64.0,46.9,54,30.19,10.0,East,5.8,-,N/A,,Overcast,90,2012-10-11 14:53:00
10:53 AM,66.0,50.0,56,30.19,10.0,NE,4.6,-,N/A,,Overcast,40,2012-10-11 15:53:00
11:18 AM,66.9,52.0,59,30.19,10.0,ENE,3.5,-,N/A,,Overcast,70,2012-10-11 16:18:00
11:44 AM,70.0,53.1,55,30.19,10.0,Variable,3.5,-,N/A,,Overcast,0,2012-10-11 16:44:00
11:53 AM,71.1,54.0,55,30.17,10.0,Variable,3.5,-,N/A,,Overcast,0,2012-10-11 16:53:00
12:53 PM,75.0,57.9,55,30.16,10.0,Variable,3.5,-,N/A,,Overcast,0,2012-10-11 17:53:00
1:15 PM,78.1,61.0,56,30.16,10.0,Variable,4.6,-,N/A,,Scattered Clouds,0,2012-10-11 18:15:00
1:53 PM,81.0,63.0,54,30.12,10.0,Variable,4.6,-,N/A,,Overcast,0,2012-10-11 18:53:00
2:53 PM,82.9,64.9,54,30.10,10.0,WSW,8.1,-,N/A,,Overcast,240,2012-10-11 19:53:00
3:53 PM,82.0,64.9,56,30.09,10.0,SSW,6.9,-,N/A,,Mostly Cloudy,200,2012-10-11 20:53:00
5:53 PM,82.0,66.0,58,30.07,10.0,South,5.8,-,N/A,,Clear,190,2012-10-11 22:53:00
6:53 PM,78.1,66.0,66,30.08,10.0,South,3.5,-,N/A,,Clear,190,2012-10-11 23:53:00
7:53 PM,75.0,64.0,69,30.08,10.0,SE,3.5,-,N/A,,Scattered Clouds,130,2012-10-12 00:53:00
8:53 PM,73.0,64.9,76,30.10,10.0,SE,3.5,-,N/A,,Clear,140,2012-10-12 01:53:00
9:53 PM,66.0,63.0,90,30.12,6.0,Calm,Calm,-,N/A,,Clear,0,2012-10-12 02:53:00
10:53 PM,66.9,64.0,90,30.12,6.0,Calm,Calm,-,N/A,,Overcast,0,2012-10-12 03:53:00
11:53 PM,64.0,63.0,96,30.12,4.0,Calm,Calm,-,N/A,,Clear,0,2012-10-12 04:53:00